Time,TemperatureF,DewpointF,PressureIn,WindDirection,WindDirectionDegrees,WindSpeedMPH,WindSpeedGustMPH,Humidity,HourlyPrecipIn,Conditions,Clouds,dailyrainin,SoftwareType,DateUTC
2013-09-29 00:12:00,46.8,45.7,30.13,NNE,22,0.0,-999.0,96,-99.99,,,0.00,Acu-Link.com,2013-09-29 04:12:00,
2013-09-29 00:27:00,46.8,45.7,30.12,NNE,22,0.0,-999.0,96,-99.99,,,0.00,Acu-Link.com,2013-09-29 04:27:00,
2013-09-29 00:42:00,46.0,44.6,30.12,NNE,22,0.0,-999.0,95,-99.99,,,0.00,Acu-Link.com,2013-09-29 04:42:00,
2013-09-29 00:57:00,46.0,44.9,30.12,East,90,0.0,-999.0,96,-99.99,,,0.00,Acu-Link.com,2013-09-29 04:57:00,
2013-09-29 01:13:00,45.3,44.2,30.12,East,90,0.0,-999.0,96,-99.99,,,0.00,Acu-Link.com,2013-09-29 05:13:00,
2013-09-29 01:28:00,45.9,45.4,30.12,ESE,112,0.0,-999.0,98,-99.99,,,0.00,Acu-Link.com,2013-09-29 05:28:00,
2013-09-29 01:43:00,45.9,45.4,30.12,ESE,112,0.0,-999.0,98,-99.99,,,0.00,Acu-Link.com,2013-09-29 05:43:00,
2013-09-29 01:58:00,45.1,44.3,30.11,WNW,292,0.0,-999.0,97,-99.99,,,0.00,Acu-Link.com,2013-09-29 05:58:00,
2013-09-29 02:14:00,45.9,45.1,30.11,South,180,0.0,-999.0,97,-99.99,,,0.00,Acu-Link.com,2013-09-29 06:14:00,
2013-09-29 02:29:00,45.9,45.1,30.11,NNW,337,0.0,-999.0,97,-99.99,,,0.00,Acu-Link.com,2013-09-29 06:29:00,
2013-09-29 02:44:00,46.4,45.9,30.11,ESE,112,0.0,-999.0,98,-99.99,,,0.00,Acu-Link.com,2013-09-29 06:44:00,
2013-09-29 02:59:00,46.8,46.3,30.10,North,0,0.0,-999.0,98,-99.99,,,0.00,Acu-Link.com,2013-09-29 06:59:00,
2013-09-29 03:14:00,46.4,45.9,30.10,South,180,0.0,-999.0,98,-99.99,,,0.00,Acu-Link.com,2013-09-29 07:14:00,
2013-09-29 03:30:00,46.2,45.7,30.10,SSE,157,0.0,-999.0,98,-99.99,,,0.00,Acu-Link.com,2013-09-29 07:30:00,
2013-09-29 03:45:00,46.8,46.3,30.09,SE,135,0.0,-999.0,98,-99.99,,,0.00,Acu-Link.com,2013-09-29 07:45:00,
2013-09-29 04:00:00,46.8,46.3,30.09,South,180,0.0,-999.0,98,-99.99,,,0.00,Acu-Link.com,2013-09-29 08:00:00,
2013-09-29 04:15:00,46.9,46.4,30.09,West,270,0.0,-999.0,98,-99.99,,,0.00,Acu-Link.com,2013-09-29 08:15:00,
2013-09-29 04:30:00,47.1,46.6,30.09,South,180,0.0,-999.0,98,-99.99,,,0.00,Acu-Link.com,2013-09-29 08:30:00,
2013-09-29 04:46:00,47.1,46.6,30.09,SSE,157,0.0,-999.0,98,-99.99,,,0.00,Acu-Link.com,2013-09-29 08:46:00,
2013-09-29 05:01:00,46.9,46.4,30.09,SE,135,0.0,-999.0,98,-99.99,,,0.00,Acu-Link.com,2013-09-29 09:01:00,
2013-09-29 05:16:00,46.9,46.4,30.09,SE,135,1.7,-999.0,98,-99.99,,,0.00,Acu-Link.com,2013-09-29 09:16:00,
2013-09-29 05:31:00,46.9,46.4,30.09,ESE,112,0.0,-999.0,98,-99.99,,,0.00,Acu-Link.com,2013-09-29 09:31:00,
2013-09-29 05:46:00,46.9,46.4,30.08,SSW,202,0.0,-999.0,98,-99.99,,,0.00,Acu-Link.com,2013-09-29 09:46:00,
2013-09-29 06:02:00,46.8,46.3,30.09,South,180,1.1,-999.0,98,-99.99,,,0.00,Acu-Link.com,2013-09-29 10:02:00,
2013-09-29 06:17:00,46.8,46.3,30.09,West,270,0.0,-999.0,98,-99.99,,,0.00,Acu-Link.com,2013-09-29 10:17:00,
2013-09-29 06:33:00,46.9,46.4,30.09,ESE,112,0.0,-999.0,98,-99.99,,,0.00,Acu-Link.com,2013-09-29 10:33:00,
2013-09-29 06:48:00,46.9,46.4,30.10,ESE,112,0.0,-999.0,98,-99.99,,,0.00,Acu-Link.com,2013-09-29 10:48:00,
2013-09-29 07:03:00,46.9,46.4,30.10,SSE,157,0.0,-999.0,98,-99.99,,,0.00,Acu-Link.com,2013-09-29 11:03:00,
2013-09-29 07:19:00,46.9,46.4,30.09,ESE,112,1.7,-999.0,98,-99.99,,,0.00,Acu-Link.com,2013-09-29 11:19:00,
2013-09-29 07:34:00,46.9,46.4,30.10,ESE,112,2.2,-999.0,98,-99.99,,,0.00,Acu-Link.com,2013-09-29 11:34:00,
2013-09-29 07:50:00,46.9,46.4,30.10,East,90,0.0,-999.0,98,-99.99,,,0.00,Acu-Link.com,2013-09-29 11:50:00,
2013-09-29 08:05:00,46.9,46.4,30.10,SSW,202,0.0,-999.0,98,-99.99,,,0.00,Acu-Link.com,2013-09-29 12:05:00,
2013-09-29 08:20:00,46.9,46.4,30.10,South,180,0.0,-999.0,98,-99.99,,,0.00,Acu-Link.com,2013-09-29 12:20:00,
2013-09-29 08:35:00,47.3,46.8,30.10,East,90,2.7,-999.0,98,-99.99,,,0.00,Acu-Link.com,2013-09-29 12:35:00,
2013-09-29 08:50:00,50.9,49.5,30.11,SE,135,1.1,-999.0,95,-99.99,,,0.00,Acu-Link.com,2013-09-29 12:50:00,
2013-09-29 09:06:00,52.3,50.9,30.11,SW,225,2.7,-999.0,95,-99.99,,,0.00,Acu-Link.com,2013-09-29 13:06:00,
2013-09-29 09:21:00,52.3,50.9,30.11,SE,135,1.1,-999.0,95,-99.99,,,0.00,Acu-Link.com,2013-09-29 13:21:00,
2013-09-29 09:36:00,52.9,50.6,30.11,ESE,112,2.2,-999.0,92,-99.99,,,0.00,Acu-Link.com,2013-09-29 13:36:00,
2013-09-29 09:51:00,54.1,51.5,30.11,ESE,112,2.7,-999.0,91,-99.99,,,0.00,Acu-Link.com,2013-09-29 13:51:00,
2013-09-29 10:07:00,53.6,51.3,30.11,ESE,112,2.7,-999.0,92,-99.99,,,0.00,Acu-Link.com,2013-09-29 14:07:00,
2013-09-29 10:22:00,55.8,52.6,30.10,ESE,112,1.7,-999.0,89,-99.99,,,0.00,Acu-Link.com,2013-09-29 14:22:00,
2013-09-29 10:37:00,56.8,53.3,30.10,WNW,292,1.1,-999.0,88,-99.99,,,0.00,Acu-Link.com,2013-09-29 14:37:00,
2013-09-29 10:52:00,58.8,53.3,30.09,SSE,157,3.2,-999.0,82,-99.99,,,0.00,Acu-Link.com,2013-09-29 14:52:00,
2013-09-29 11:08:00,59.0,53.5,30.09,East,90,2.7,-999.0,82,-99.99,,,0.00,Acu-Link.com,2013-09-29 15:08:00,
2013-09-29 11:23:00,61.2,53.2,30.08,NE,45,2.2,-999.0,75,-99.99,,,0.00,Acu-Link.com,2013-09-29 15:23:00,
2013-09-29 11:53:00,64.9,52.0,30.06,SSW,202,1.7,-999.0,63,-99.99,,,0.00,Acu-Link.com,2013-09-29 15:53:00,
2013-09-29 12:08:00,64.6,49.9,30.05,NNW,337,2.7,-999.0,59,-99.99,,,0.00,Acu-Link.com,2013-09-29 16:08:00,
2013-09-29 12:24:00,63.9,49.3,30.06,SSW,202,2.2,-999.0,59,-99.99,,,0.00,Acu-Link.com,2013-09-29 16:24:00,
2013-09-29 12:39:00,64.8,48.2,30.06,West,270,2.7,-999.0,55,-99.99,,,0.00,Acu-Link.com,2013-09-29 16:39:00,
2013-09-29 12:54:00,66.2,49.1,30.05,East,90,1.7,-999.0,54,-99.99,,,0.00,Acu-Link.com,2013-09-29 16:54:00,
2013-09-29 13:09:00,68.0,47.6,30.05,WSW,247,2.7,-999.0,48,-99.99,,,0.00,Acu-Link.com,2013-09-29 17:09:00,
2013-09-29 13:25:00,66.7,47.5,30.04,East,90,2.7,-999.0,50,-99.99,,,0.00,Acu-Link.com,2013-09-29 17:25:00,
2013-09-29 13:40:00,67.5,46.6,30.04,ESE,112,4.7,-999.0,47,-99.99,,,0.00,Acu-Link.com,2013-09-29 17:40:00,
2013-09-29 13:55:00,67.3,45.8,30.02,ESE,112,2.7,-999.0,46,-99.99,,,0.00,Acu-Link.com,2013-09-29 17:55:00,
2013-09-29 14:10:00,69.1,45.0,30.02,SSE,157,3.2,-999.0,42,-99.99,,,0.00,Acu-Link.com,2013-09-29 18:10:00,
2013-09-29 14:25:00,68.2,41.6,30.01,WSW,247,1.1,-999.0,38,-99.99,,,0.00,Acu-Link.com,2013-09-29 18:25:00,
2013-09-29 14:41:00,68.9,44.9,30.01,SSE,157,3.7,-999.0,42,-99.99,,,0.00,Acu-Link.com,2013-09-29 18:41:00,
2013-09-29 14:56:00,71.4,44.5,30.00,South,180,0.0,-999.0,38,-99.99,,,0.00,Acu-Link.com,2013-09-29 18:56:00,
2013-09-29 15:11:00,69.4,46.5,29.99,East,90,2.7,-999.0,44,-99.99,,,0.00,Acu-Link.com,2013-09-29 19:11:00,
2013-09-29 15:26:00,68.9,44.2,29.99,ESE,112,4.2,-999.0,41,-99.99,,,0.00,Acu-Link.com,2013-09-29 19:26:00,
2013-09-29 15:41:00,67.8,43.9,29.98,East,90,4.7,-999.0,42,-99.99,,,0.00,Acu-Link.com,2013-09-29 19:41:00,
2013-09-29 15:57:00,67.8,43.2,29.98,East,90,4.7,-999.0,41,-99.99,,,0.00,Acu-Link.com,2013-09-29 19:57:00,
2013-09-29 16:12:00,68.0,43.4,29.99,SE,135,4.2,-999.0,41,-99.99,,,0.00,Acu-Link.com,2013-09-29 20:12:00,
2013-09-29 16:27:00,66.4,45.0,29.97,ESE,112,2.2,-999.0,46,-99.99,,,0.00,Acu-Link.com,2013-09-29 20:27:00,
2013-09-29 16:42:00,67.3,46.4,29.97,East,90,2.7,-999.0,47,-99.99,,,0.00,Acu-Link.com,2013-09-29 20:42:00,
2013-09-29 16:57:00,67.1,46.2,29.98,South,180,1.7,-999.0,47,-99.99,,,0.00,Acu-Link.com,2013-09-29 20:57:00,
2013-09-29 17:13:00,66.7,50.0,29.98,ESE,112,3.2,-999.0,55,-99.99,,,0.00,Acu-Link.com,2013-09-29 21:13:00,
2013-09-29 17:28:00,64.8,51.0,29.98,ESE,112,4.7,-999.0,61,-99.99,,,0.00,Acu-Link.com,2013-09-29 21:28:00,
2013-09-29 17:43:00,63.1,51.1,29.97,NNE,22,1.1,-999.0,65,-99.99,,,0.00,Acu-Link.com,2013-09-29 21:43:00,
2013-09-29 17:58:00,62.1,51.0,29.98,SSE,157,2.7,-999.0,67,-99.99,,,0.00,Acu-Link.com,2013-09-29 21:58:00,
2013-09-29 18:14:00,60.4,50.6,29.99,East,90,2.7,-999.0,70,-99.99,,,0.00,Acu-Link.com,2013-09-29 22:14:00,
2013-09-29 18:29:00,59.4,50.7,29.98,WNW,292,0.0,-999.0,73,-99.99,,,0.00,Acu-Link.com,2013-09-29 22:29:00,
2013-09-29 18:44:00,58.1,50.6,29.99,ESE,112,1.1,-999.0,76,-99.99,,,0.00,Acu-Link.com,2013-09-29 22:44:00,
2013-09-29 18:59:00,56.7,50.3,29.98,South,180,0.0,-999.0,79,-99.99,,,0.00,Acu-Link.com,2013-09-29 22:59:00,
2013-09-29 19:14:00,55.4,49.3,29.98,South,180,0.0,-999.0,80,-99.99,,,0.00,Acu-Link.com,2013-09-29 23:14:00,
2013-09-29 19:30:00,54.3,48.9,29.97,NNE,22,1.7,-999.0,82,-99.99,,,0.00,Acu-Link.com,2013-09-29 23:30:00,
2013-09-29 19:45:00,54.0,48.3,29.99,ESE,112,0.0,-999.0,81,-99.99,,,0.00,Acu-Link.com,2013-09-29 23:45:00,
2013-09-29 20:00:00,52.3,47.6,29.99,SW,225,0.0,-999.0,84,-99.99,,,0.00,Acu-Link.com,2013-09-30 00:00:00,
2013-09-29 20:15:00,52.0,47.3,29.98,SSE,157,0.0,-999.0,84,-99.99,,,0.00,Acu-Link.com,2013-09-30 00:15:00,
2013-09-29 20:30:00,50.7,47.0,29.98,NNW,337,0.0,-999.0,87,-99.99,,,0.00,Acu-Link.com,2013-09-30 00:30:00,
2013-09-29 20:46:00,50.2,46.2,29.98,SE,135,0.0,-999.0,86,-99.99,,,0.00,Acu-Link.com,2013-09-30 00:46:00,
2013-09-29 21:01:00,49.1,46.6,29.98,West,270,0.0,-999.0,91,-99.99,,,0.00,Acu-Link.com,2013-09-30 01:01:00,
2013-09-29 21:16:00,48.7,47.1,29.98,NNW,337,0.0,-999.0,94,-99.99,,,0.00,Acu-Link.com,2013-09-30 01:16:00,
2013-09-29 21:31:00,48.2,46.3,29.98,ESE,112,0.0,-999.0,93,-99.99,,,0.00,Acu-Link.com,2013-09-30 01:31:00,
2013-09-29 21:46:00,47.1,45.2,29.99,West,270,0.0,-999.0,93,-99.99,,,0.00,Acu-Link.com,2013-09-30 01:46:00,
2013-09-29 22:02:00,47.3,46.5,29.98,NNE,22,0.0,-999.0,97,-99.99,,,0.00,Acu-Link.com,2013-09-30 02:02:00,
2013-09-29 22:32:00,46.2,45.1,29.99,SW,225,0.0,-999.0,96,-99.99,,,0.00,Acu-Link.com,2013-09-30 02:32:00,
2013-09-29 22:47:00,45.9,45.1,29.99,WSW,247,0.0,-999.0,97,-99.99,,,0.00,Acu-Link.com,2013-09-30 02:47:00,
2013-09-29 23:02:00,45.1,44.0,29.99,SSW,202,0.0,-999.0,96,-99.99,,,0.00,Acu-Link.com,2013-09-30 03:02:00,
2013-09-29 23:18:00,44.6,43.5,29.99,West,270,0.0,-999.0,96,-99.99,,,0.00,Acu-Link.com,2013-09-30 03:18:00,
2013-09-29 23:33:00,44.1,43.0,29.99,West,270,0.0,-999.0,96,-99.99,,,0.00,Acu-Link.com,2013-09-30 03:33:00,
2013-09-29 23:48:00,44.1,43.3,29.98,ESE,112,0.0,-999.0,97,-99.99,,,0.00,Acu-Link.com,2013-09-30 03:48:00,